Погода Большое Нарымское

Погода Большое Нарымское : погода сейчас, прогноз погоды и архив. Всё, что Вы хотите узнать о погоде Большое Нарымское!

Поиск расширенной информации на нашем сайте:

Полезная информация: последние блоки аренда офиса в бизнес центре ЭКО , Мироновская ул., 25 описание помещений на сайте

Другие новости

Новости СМИ2

Главная страница сайта

Новости сайта

03.07.2017

Напоминаем, что на нашем специализированном сайте Метеоцентр.Азия вы можете получить высокодетализированные автоматические прогнозы погоды по пунктам России, СНГ и мира в авиационном формате (включающие направление и скорость ветра, видимость, явления погоды, количество и форму облачности, нижнюю и верхнюю границу облачности).

Рекомендуем: Самая актуальная информация напосим курс тут.

Погода Большое Нарымское - сегодня

Время (UTC), дата Ветер
(°,м/с) 
Видим.   Явления Облачность Т
(°С)
Тd
(°С)
f(%) Тe
(°С)
Pmin
(гПа)
dP
(гПа)
Po
(мм)
O2
(г/м3)
Тmin Tmax R s Состояние
почвы
15 22.09.18 030 (СВ) н/о    9/3 1000 м кучево-дожд., средняя, верхняя 
[Cb cap|Ac trans|Ci fib]
+12.5 +9.2 80 +14  1018.7  0.2  729  279    +19.3       
18 22.09.18 260 (З) н/о    8/1 1500 м средняя, верхняя 
[Sc|Ac lent|Ci fib]
+10.3 +7.4 82 +11  1018.3  -0.7  728  281    +19.3       
21 22.09.18 280 (З) н/о    10/8 1000 м кучево-дожд., средняя 
[Cb cap|Ac und]
+12.2 +8.9 80 +12  1017.6  -0.4  728  279           
00 23.09.18 010 (С) н/о    9/9 1000 м кучево-дожд. 
[Cb cap]
+11.4 +8.8 84 +12  1019.3  1.5  729  280           
03 23.09.18 030 (СВ) 20000 м  {ливн. осадки}  9/5 1000 м кучево-дожд., средняя, верхняя 
[Cb cap|Ac und|Ci sp]
+14.6 +11.3 81 +19  1018.1  -0.6  728  276           
06 23.09.18 290 (З) 20000 м  {ливн. осадки}  8/4 1000 м кучево-дожд., средняя, верхняя 
[Cb cap|Ac lent|Cc]
+20 +7.3 44 +20  1015.8  -1.4  727  272  +9.5    0.8     
09 23.09.18 150 (ЮВ) 20000 м    10/4 1000 м кучево-дожд., средняя, верхняя 
[Cb cap|Ac lent|Cc]
+21.8 +7.3 39 +22  1013.5  -1.9  726  270           
12 23.09.18 080 (В) 20000 м    9/5 1000 м кучево-дожд., средняя, верхняя 
[Cb cap|Ac und|Ci sp]
+20 +7.8 45 +20  1013  -0.8  725  271           
15 23.09.18 220 (ЮЗ) н/о    9/6 1000 м кучево-дожд., средняя 
[Cb cap|Ac und]
+18.7 +4.2 38 +20  1013.5  0.3  726  273    +22.6       
18 23.09.18 020 (С) н/о  {ливн. осадки}  9/5 1000 м кучево-дожд., средняя 
[Cb cap|Ac und]
+13.9 +10.7 81 +17  1015.1  0.8  726  276    +22.6       
21 23.09.18 060 (СВ) н/о    9/8 600 м кучево-дожд., средняя 
[Cb cap|Ac und]
+14.2 +7.9 66 +14  1012.7  -2.2  725  276           
00 24.09.18 130 (ЮВ) н/о  {ливн. осадки}  10/8 600 м кучево-дожд., средняя 
[Cb cap|Ac und]
+11.1 +10.1 94 +13  1015.4  2.1  726  279           
03 24.09.18 060 (СВ) 20000 м  {ливн. осадки}  10/10 600 м кучево-дожд. 
[Cb cap]
+11.9 +10.2 89 +14  1014.4  -0.9  725  278           
06 24.09.18 тихо ()   4000 м  слаб. ливневой дождь  10/10 600 м кучево-дожд. 
[Cb cap]
+12.9 +11.2 89 +16  1015.8  1.6  727  277  +10.5       
09 24.09.18 080 (В) 4000 м  слаб. ливневой дождь  10/10 600 м кучево-дожд. 
[Cb cap]
+13 +12.1 94 +19  1015.6  -0.2  726  277           
12 24.09.18 140 (ЮВ) 10 км  в посл. час ливневой дождь  10/10 600 м кучево-дожд. 
[Cb cap]
+11.1 +10.9 99 +14  1016.9  0.9  727  279           
15 24.09.18 010 (С) н/о  {ливн. осадки}  10/8 600 м кучево-дожд., средняя 
[Cb cap|Ac und]
+10.5 +9.7 95 +13  1018.3  1.2  728  281    +13.5       
18 24.09.18 260 (З) н/о  слаб. ливневой дождь  10/10 600 м кучево-дожд. 
[Cb cap]
+10.3 +9.9 97 +12  1019  0.7  729  281    +13.5  10     
21 24.09.18 250 (З) н/о  {ливн. осадки}  10/8 600 м кучево-дожд., средняя 
[Cb cap|Ac As]
+10.1 +8.5 90 +11  1019.2  0.1  729  282           
00 25.09.18 270 (З) н/о  слаб. ливневой дождь  10/10 600 м кучево-дожд. 
[Cb cap]
+9.2 +7.1 87 +9  1020.7  1.3  730  283           
03 25.09.18 250 (З) 20000 м  {ливн. осадки}  8/3 1000 м кучево-дожд., средняя, верхняя 
[Cb cap|Ac lent|Ci fib]
+10 +7.3 83 +10  1022.4  1.7  731  283           
06 25.09.18 280 (З) 20000 м  {ливн. осадки}  9/8 1000 м кучево-дожд., верхняя 
[Cb cap|Ci fib]
+14.1 +5.8 57 +14  1021.2  -0.5  731  279  +8.6       
09 25.09.18 270 (З) 20000 м    9/6 1000 м кучево-дожд., верхняя 
[Cb cap|Ci fib]
+13.2 +5.9 61 +12  1020.7  -0.6  730  280           
12 25.09.18 300 (СЗ) 20000 м  в посл. час ливневой дождь  9/8 1000 м кучево-дожд., средняя 
[Cb cap|Ac lent]
+8.9 +7.2 89 +9  1023.6  2.1  732  284           
15 25.09.18 030 (СВ) н/о    3/3 1500 м верхняя 
[Sc|Ci fib]
+6.2 +5.8 97 +6  1025.3  1.1  732  288    +15.2       
Время (UTC), дата Ветер
(°,м/с) 
Видим.   Явления Облачность Т
(°С)
Тd
(°С)
f(%) Тe
(°С)
Pmin
(гПа)
dP
(гПа)
Po
(мм)
O2
(г/м3)
Тmin Tmax R s Состояние
почвы

Для получения пояснительной информации подведите курсор к названию столбца.

ПОГОДА Большое Нарымское - архив

Всё, что Вы хотите узнать о погоде Большое Нарымское - удобно и подробно!

Выберите нужную дату (начиная с 1 января 2015* года) и нажмите кнопку "Найти".
Будут отображены архивные сводки погоды по пункту Большое Нарымское, начиная с указанной даты.


Отображать данные в формате CSV (для использования в таблицах Excel)


Внимание! Наш архив погоды предназначен исключительно для личного некоммерческого использования в познавательных целях. Если Вам необходимы официальные справки о состоянии погоды (для производственных, юридических, коммерческих и т.п. целей), обращайтесь в органы Росгидромета.

*Примечание: данная дата относится к архиву по метеостанциям СССР (Россия, СНГ, Балтия).
Архив по метеостанциям Зарубежной Европы и Азии (кроме Китая) хранится 10 дней, по другим регионам земного шара (Китай, Африка, Америка, Австралия, Океания) - 1 день.

Большое Нарымское - район местоположения метеостанции


Название, широта, долгота, высота метеостанции:
Большое Нарымское 49.2°ш. 84.5°д. 401 м над ур. моря [Казахстан]

Дополнительная информация

В oтличие oт бoльшинства пoгoдных сайтoв мы публикуем пoдрoбную метеoинфoрмацию в детальнoм прoфессиoнальнoм фoрмате.

Характеристики температуры и влажнoсти вoздуха измеряются на высoте 2 м в тени вдали oт зданий и деревьев.
Скoрoсть ветра измеряется на высoте 10 м (на урoвне рoста челoвека скoрoсть ветра ниже в 1.5-2 раза). Если метеoстанция нахoдится в гoрoде или в лесу, тo скoрoсть ветра занижена на 2-4 м/с пo сравнению с oткрытым местoм. Скoрoсть ветра над акватoриями крупных рек и oзёр, а также на вершинах хoлмoв на 2-5 м/с выше, чем в oбычных услoвиях.
Атмoсфернoе давление в разных тoчках местнoсти мoжет значительнo oтличаться oт давления на метеoстанции, в зависимoсти oт услoвий рельефа (при пoдъёме на 10 м давление пoнижается примернo на 1 мм рт.ст.).